OE3TEC-15 Weather Reports


Display with metric or nautical units.
time (UTC)temp
F
wind
direction
speed
MPH
gust
MPH
rain 1hr
in
rain 24hr
in
rain mn
in
humidity
%
barometer
mb
20260506145038 79 91 6.0 14.0 0.00 0.00 0.00 38 1004.6
20260506144031 79 107 5.0 15.0 0.00 0.00 0.00 38 1004.8
20260506143024 78 117 5.0 14.0 0.00 0.00 0.00 38 1004.9
20260506142016 78 90 6.0 16.0 0.00 0.00 0.00 38 1005.0
20260506141008 78 113 6.0 16.0 0.00 0.00 0.00 37 1005.4
20260506140001 79 103 6.0 15.0 0.00 0.00 0.00 36 1005.2
20260506134954 79 112 6.0 17.0 0.00 0.00 0.00 37 1005.4
20260506133947 78 101 7.0 17.0 0.00 0.00 0.00 37 1005.5
20260506132939 77 94 6.0 16.0 0.00 0.00 0.00 39 1005.5
20260506131932 77 93 7.0 18.0 0.00 0.00 0.00 39 1006.1
20260506130924 77 91 7.0 17.0 0.00 0.00 0.00 40 1006.4
20260506125917 76 89 6.0 15.0 0.00 0.00 0.00 40 1006.5
20260506124911 75 103 6.0 15.0 0.00 0.00 0.00 41 1006.6
20260506123904 78 107 6.0 16.0 0.00 0.00 0.00 40 1006.6
20260506122856 78 113 5.0 14.0 0.00 0.00 0.00 39 1007.1
20260506121848 78 108 5.0 15.0 0.00 0.00 0.00 38 1006.9
20260506120842 77 100 6.0 17.0 0.00 0.00 0.00 41 1007.0
20260506115834 76 111 6.0 14.0 0.00 0.00 0.00 41 1007.2
20260506114827 76 92 7.0 17.0 0.00 0.00 0.00 40 1007.3
20260506113827 76 105 6.0 15.0 0.00 0.00 0.00 41 1007.3
20260506112823 75 84 6.0 13.0 0.00 0.00 0.00 43 1007.6
20260506111815 77 137 5.0 14.0 0.00 0.00 0.00 42 1007.6
20260506110808 76 122 4.0 13.0 0.00 0.00 0.00 44 1007.7
20260506105800 75 87 7.0 16.0 0.00 0.00 0.00 45 1007.8
20260506104753 75 112 5.0 14.0 0.00 0.00 0.00 44 1008.0
20260506103745 75 104 5.0 18.0 0.00 0.00 0.00 42 1008.0
20260506102738 75 96 6.0 14.0 0.00 0.00 0.00 44 1007.9
20260506101738 75 87 6.0 15.0 0.00 0.00 0.00 45 1008.3
20260506100732 75 88 6.0 16.0 0.00 0.00 0.00 43 1008.5
20260506095725 75 110 4.0 15.0 0.00 0.00 0.00 44 1008.6
20260506094717 74 97 5.0 10.0 0.00 0.00 0.00 45 1008.6
20260506093712 74 91 3.0 8.0 0.00 0.00 0.00 46 1008.8
20260506092704 73 96 4.0 11.0 0.00 0.00 0.00 48 1009.0
20260506091656 74 127 3.0 9.0 0.00 0.00 0.00 44 1008.9
20260506090649 74 116 2.0 7.0 0.00 0.00 0.00 44 1008.8
20260506085641 74 130 2.0 6.0 0.00 0.00 0.00 42 1008.8
20260506084634 73 143 2.0 7.0 0.00 0.00 0.00 44 1009.1
20260506083627 73 149 1.0 4.0 0.00 0.00 0.00 43 1009.1
20260506082619 72 166 1.0 3.0 0.00 0.00 0.00 46 1009.1
20260506081612 70 219 2.0 6.0 0.00 0.00 0.00 48 1009.2
20260506080604 69 239 4.0 8.0 0.00 0.00 0.00 50 1009.3
20260506072536 68 240 6.0 10.0 0.00 0.00 0.00 56 1009.7
20260506071528 68 230 4.0 9.0 0.00 0.00 0.00 55 1009.8
20260506070521 67 235 4.0 8.0 0.00 0.00 0.00 56 1009.9
20260506062452 64 217 2.0 8.0 0.00 0.00 0.00 66 1009.7
20260506061445 64 211 1.0 3.0 0.00 0.00 0.00 67 1009.9
20260506060436 64 209 1.0 2.0 0.00 0.00 0.00 68 1009.8
20260506051401 61 241 4.0 8.0 0.00 0.00 0.00 74 1009.8
20260506050355 60 246 5.0 9.0 0.00 0.00 0.00 76 1009.7
20260506044340 58 243 5.0 9.0 0.00 0.00 0.00 79 1009.4
20260506043333 59 240 6.0 10.0 0.00 0.00 0.00 78 1009.4
20260506042325 58 239 4.0 7.0 0.00 0.00 0.00 80 1009.4
20260506041317 56 222 1.0 4.0 0.00 0.00 0.00 83 1009.4
20260506040312 56 236 3.0 7.0 0.00 0.00 0.00 82 1009.2
20260506035306 56 236 3.0 7.0 0.00 0.00 0.00 83 1008.9
20260506034256 55 183 0.0 3.0 0.00 0.00 0.00 83 1009.1
20260506033249 56 153 0.0 2.0 0.00 0.00 0.00 80 1009.1
20260506032242 55 183 0.0 2.0 0.00 0.00 0.00 82 1008.9
20260506031235 55 198 0.0 0.0 0.00 0.00 0.00 80 1009.1
20260506030227 57 205 0.0 1.0 0.00 0.00 0.00 77 1009.1
20260506025219 57 210 0.0 3.0 0.00 0.00 0.00 77 1009.1
20260506024212 57 221 1.0 3.0 0.00 0.00 0.00 75 1009.1
20260506023205 57 222 1.0 3.0 0.00 0.00 0.00 77 1009.0
20260506022158 56 219 1.0 2.0 0.00 0.00 0.00 77 1009.0
20260506021152 59 227 2.0 4.0 0.00 0.00 0.00 72 1008.8
20260506020144 61 241 3.0 6.0 0.00 0.00 0.00 69 1009.1
20260506015137 62 244 4.0 6.0 0.00 0.00 0.00 67 1008.8
20260506014129 62 244 4.0 6.0 0.00 0.00 0.00 67 1008.9
20260506013122 62 243 4.0 9.0 0.00 0.00 0.00 66 1008.7
20260506012115 62 250 6.0 9.0 0.00 0.00 0.00 64 1008.7
20260506011108 62 243 5.0 8.0 0.00 0.00 0.00 64 1008.8
20260506010100 62 241 4.0 8.0 0.00 0.00 0.00 64 1008.6
20260506005052 62 241 4.0 8.0 0.00 0.00 0.00 64 1008.6
20260506004045 61 239 3.0 6.0 0.00 0.00 0.00 65 1008.3
20260506003038 56 206 0.0 0.0 0.00 0.00 0.00 75 1008.1
20260506002032 57 191 0.0 0.0 0.00 0.00 0.00 73 1007.9
20260506001024 57 207 0.0 1.0 0.00 0.00 0.00 73 1007.6
20260506000017 58 208 0.0 1.0 0.00 0.00 0.00 70 1007.6
20260505235010 58 216 0.0 2.0 0.00 0.00 0.00 72 1007.7
20260505234002 57 205 0.0 0.0 0.00 0.00 0.00 73 1007.6
20260505232955 57 183 0.0 0.0 0.00 0.00 0.00 71 1007.3
20260505231947 56 200 0.0 1.0 0.00 0.00 0.00 73 1007.4
20260505230940 56 190 0.0 1.0 0.00 0.00 0.00 73 1007.3
20260505225933 55 196 0.0 0.0 0.00 0.00 0.00 75 1007.2
20260505224925 55 211 0.0 2.0 0.00 0.00 0.00 74 1007.1
20260505223918 55 206 0.0 2.0 0.00 0.00 0.00 74 1006.8
20260505222912 55 215 0.0 2.0 0.00 0.00 0.00 73 1006.8
20260505221905 55 217 0.0 1.0 0.00 0.00 0.00 72 1006.6
20260505220858 55 207 0.0 1.0 0.00 0.00 0.00 72 1006.5
20260505215850 57 205 0.0 1.0 0.00 0.00 0.00 68 1006.2
20260505214843 58 204 0.0 1.0 0.00 0.00 0.00 64 1006.2
20260505213835 60 186 0.0 2.0 0.00 0.00 0.00 61 1005.9
20260505212828 61 108 2.0 7.0 0.00 0.00 0.00 59 1006.1
20260505211821 61 94 2.0 7.0 0.00 0.00 0.00 59 1005.8
20260505210813 60 142 1.0 3.0 0.00 0.00 0.00 61 1005.9
20260505205806 60 221 0.0 2.0 0.00 0.00 0.00 60 1005.5
20260505204800 61 204 0.0 2.0 0.00 0.00 0.00 59 1005.4
20260505203752 62 148 1.0 3.0 0.00 0.00 0.00 57 1005.5
20260505202745 62 136 1.0 4.0 0.00 0.00 0.00 57 1005.5
20260505201738 62 84 3.0 6.0 0.00 0.00 0.00 56 1005.1
20260505200730 63 86 3.0 6.0 0.00 0.00 0.00 55 1005.2
20260505195723 63 81 3.0 7.0 0.00 0.00 0.00 55 1005.1
20260505194715 63 74 3.0 7.0 0.00 0.00 0.00 54 1005.2
20260505193708 64 83 4.0 8.0 0.00 0.00 0.00 53 1005.0
20260505192700 64 80 4.0 8.0 0.00 0.00 0.00 52 1005.1
20260505191654 65 88 4.0 8.0 0.00 0.00 0.00 51 1005.1
20260505190645 66 92 3.0 7.0 0.00 0.00 0.00 50 1004.9
20260505185643 66 89 3.0 8.0 0.00 0.00 0.00 49 1004.9
20260505184632 67 96 3.0 6.0 0.00 0.00 0.00 49 1004.8
20260505183632 68 97 3.0 7.0 0.00 0.00 0.00 47 1004.7
20260505182627 69 90 3.0 9.0 0.00 0.00 0.00 46 1004.9
20260505181620 69 105 3.0 7.0 0.00 0.00 0.00 46 1004.9
20260505180611 70 98 3.0 10.0 0.00 0.00 0.00 45 1004.9
20260505175605 71 107 3.0 9.0 0.00 0.00 0.00 44 1004.9
20260505174604 72 91 4.0 9.0 0.00 0.00 0.00 43 1004.8
20260505173601 72 92 4.0 10.0 0.00 0.00 0.00 42 1004.9
20260505172553 73 94 4.0 10.0 0.00 0.00 0.00 41 1004.6
20260505171546 74 98 4.0 11.0 0.00 0.00 0.00 41 1004.9
20260505170537 74 102 4.0 8.0 0.00 0.00 0.00 40 1005.0
20260505165531 75 115 4.0 13.0 0.00 0.00 0.00 39 1004.9
20260505164523 76 104 5.0 13.0 0.00 0.00 0.00 38 1005.0
20260505163516 76 111 4.0 14.0 0.00 0.00 0.00 38 1004.7
20260505162509 77 122 3.0 11.0 0.00 0.00 0.00 36 1004.7
20260505161501 78 149 4.0 11.0 0.00 0.00 0.00 34 1004.9
20260505160453 79 110 5.0 14.0 0.00 0.00 0.00 33 1004.9
20260505152425 80 106 5.0 15.0 0.00 0.00 0.00 33 1005.0
20260505151418 81 108 5.0 11.0 0.00 0.00 0.00 30 1004.8
20260505150410 82 113 4.0 11.0 0.00 0.00 0.00 29 1005.0